Terug naar catalogus

STARLINK-32507

ActiefCommunicatieVLEO
NORAD 62132·PAYLOAD·🇺🇸 United States

Gelanceerd Nov 27, 2024 vanaf Cape Canaveral Space Force Station

Loading…

Volgende Passages (komende 24 uur)

TLE

VersSource: CelesTrak SupGP

Epoch: Sep 14, 2026, 22:34 UTC

1 62132C 24222U   26257.94076389 -.00036927  00000+0 -13378-2 0  2573
2 62132  42.9989 146.9792 0001324 272.1057 218.4140 15.27588717    11

Volg STARLINK-32507 in realtime met AllMySat

Download on the App Store